Location: Sternwarte der Astronomie-Werkstatt "Sterne ohne Grenzen"
(50.5725°N, 6.4408°E)
Time: 17:12:45
(UTC+01:00)

ISS - Visible Passes

Search period start: 14 December 2025 00:00
Search period end: 24 December 2025 00:00
Orbit: 416 x 420 km, 51.6° (Epoch: 13 December)

Date Brightness Start Highest point End Pass type
(mag) Time Alt. Az. Time Alt. Az. Time Alt. Az.
14 Dec -0.7 06:27:02 10° S 06:28:57 14° SE 06:30:52 10° ESE visible
15 Dec -2.4 07:14:04 10° SW 07:17:15 41° SSE 07:20:28 10° E visible
16 Dec -1.9 06:26:42 12° SSW 06:29:20 29° SSE 06:32:19 10° E visible
17 Dec -1.4 05:41:17 20° SSE 05:41:27 20° SE 05:44:01 10° E visible
17 Dec -3.6 07:14:28 10° WSW 07:17:50 73° SSE 07:21:12 10° ENE visible
18 Dec -3.2 06:28:35 33° SW 06:29:48 55° SSE 06:33:07 10° ENE visible
19 Dec -1.9 05:42:44 31° ESE 05:42:44 31° ESE 05:44:58 10° E visible
19 Dec -3.8 07:15:41 15° W 07:18:26 79° N 07:21:49 10° ENE visible
20 Dec -3.9 06:29:41 58° WSW 06:30:18 89° SSE 06:33:40 10° ENE visible
21 Dec -1.9 05:43:36 31° E 05:43:36 31° E 05:45:32 10° ENE visible
21 Dec -3.7 07:16:32 17° W 07:18:59 71° N 07:22:21 10° E visible
22 Dec -3.8 06:30:21 62° WNW 06:30:47 73° N 06:34:09 10° E visible
23 Dec -1.8 05:44:07 29° ENE 05:44:07 29° ENE 05:45:57 10° ENE visible
23 Dec -3.8 07:17:02 18° WNW 07:19:26 82° NNE 07:22:49 10° E visible
